Tracking 29777 objects as of 4-Oct-2024
HD Live streaming from Space Station
objects crossing your sky now

COSMOS 2419 (GLONASS)

Track COSMOS 2419 (GLONASS) now!
COSMOS 2419 (GLONASS) is classified as:


NORAD ID: 28915
Int'l Code: 2005-050A
Perigee: 19,099.9 km
Apogee: 19,173.2 km
Inclination: 65.9 °
Period: 675.7 minutes
Semi major axis: 25507 km
RCS: 3.2413 m2 (large)
Launch date: December 25, 2005
Source: Commonwealth of Independent States (former USSR) (CIS)
Launch site: TYURATAM MISSILE AND SPACE COMPLEX (TTMTR)
Your satellite tracking list
Your tracking list is empty




NASA's NSSDC Master Catalog

Two Line Element Set (TLE):
1 28915U 05050A   24277.89756174 -.00000055  00000-0  00000+0 0  9994
2 28915  65.8825 336.9427 0014361 327.2090  32.9042  2.13108307146144
Source of the keplerian elements: AFSPC